Location: Newark
(34.9500°N, 139.9667°E)
Time: 12:52:56
(UTC+00:00)

Altair - Pass Details

Date: 11 December 2019
Orbit: 1502 x 1682 km, 47.2° (Epoch: 17 January)

Event Time Altitude Azimuth Distance (km) Brightness Sun altitude
Rises 12:35:44 0° 260° (W) 4,785 10.5 -61.8°
Reaches altitude 10° 12:39:02 10° 266° (W) 3,775 9.8 -62.4°
Enters shadow 12:39:23 11° 266° (W) 3,669 9.7 -62.5°
